Vorticity
4 5 5 6 6 6 7 7 7 7 7 6 5 5 4 3 3 3 3 3 4 5 5 6 7 7 7 7 7 8 8 8 8 8 8 8 7 7 7 7 8 9 11 12 13 14 15 15 15 15 14 14 13 13 13 13 13 12 12 12 12 11 11 10 10 9 9 8 7 7 6 6 6 6 7 8 8 9 10 10 10 9 9 9 9 9 8 8 7 7 7 7 8 9 10 10 11 11 11 11 10 10 9
5 6 6 6 6 7 7 7 7 7 6 6 5 4 3 3 3 2 3 3 4 5 6 7 7 7 7 7 8 8 8 8 9 9 9 9 9 8 8 7 7 7 7 9 10 11 13 14 15 15 15 15 14 14 14 13 13 12 12 11 11 10 10 9 8 8 7 7 6 6 6 6 7 7 8 9 9 10 10 10 10 9 9 9 8 8 8 8 8 7 7 7 8 9 10 10 11 11 11 11 11 10 10
6 7 7 7 7 7 7 7 7 6 6 5 5 4 3 2 2 2 2 3 5 6 7 8 9 9 9 9 9 9 9 9 9 9 10 10 10 10 9 9 8 7 7 6 7 8 9 10 11 12 13 13 13 12 12 12 11 11 10 9 9 8 8 7 7 7 6 6 6 6 7 7 7 8 8 9 9 10 10 10 9 9 8 8 8 8 8 8 8 8 7 7 8 9 9 10 11 11 11 11 11 11 10
7 7 7 7 7 7 6 6 6 6 6 5 5 4 3 2 2 2 2 4 5 7 9 10 10 10 10 10 10 10 10 10 10 10 11 11 11 11 11 11 10 9 8 7 6 6 6 7 7 8 9 9 9 9 9 9 8 8 7 7 7 6 6 6 6 6 6 6 7 7 7 8 8 8 8 9 9 9 9 9 9 8 8 8 8 8 8 8 8 8 8 8 8 8 9 10 11 11 11 11 11 11 11
7 8 8 8 7 7 6 6 6 6 5 5 4 3 3 2 1 1 2 4 6 8 9 10 10 11 11 11 11 11 10 10 11 11 11 11 12 12 12 12 12 11 10 9 8 7 6 6 6 6 7 7 7 6 6 6 6 6 6 6 6 6 6 6 6 7 7 7 8 8 8 8 8 8 8 8 8 8 8 8 8 8 8 8 8 8 8 8 8 8 8 8 8 8 9 10 10 11 12 12 11 11 11
7 8 8 8 7 7 6 6 6 6 5 5 4 3 2 1 1 1 2 4 6 8 9 9 9 10 10 10 10 10 10 10 10 11 11 12 12 13 13 13 13 13 12 12 11 10 9 8 7 7 7 7 7 6 6 6 6 6 6 6 6 6 7 7 7 8 8 8 8 8 8 8 8 8 7 7 7 7 7 8 8 8 8 8 8 7 7 8 8 8 8 8 8 8 9 9 10 11 12 12 12 12 11
7 8 9 8 7 6 6 6 6 5 5 4 4 3 2 1 0 0 1 4 5 7 7 7 7 8 8 8 9 9 9 9 9 10 10 11 11 12 13 13 14 14 14 13 13 12 11 11 10 9 9 9 9 8 8 8 8 8 7 8 8 8 8 8 8 8 8 8 8 8 7 7 7 7 7 7 7 7 7 7 7 7 7 7 7 7 7 7 7 7 8 8 8 8 9 9 10 11 12 12 13 12 12
7 8 9 8 7 6 6 6 5 5 5 4 4 3 2 1 0 0 1 3 4 5 5 5 5 6 6 6 6 6 7 7 8 8 8 9 10 10 11 12 12 13 13 13 13 13 13 12 12 11 11 10 10 10 10 9 9 9 9 9 9 8 8 8 8 7 7 7 7 6 6 6 6 6 6 6 6 6 6 6 7 7 7 7 7 7 7 7 7 7 7 7 8 8 8 9 10 11 12 13 13 13 13
7 7 8 8 7 7 6 6 5 5 4 4 4 3 2 1 -0 -0 0 1 2 3 4 4 4 4 4 4 4 4 5 5 5 6 6 6 7 7 8 9 9 10 11 11 11 11 11 11 11 11 10 10 10 9 9 9 9 8 8 8 8 7 7 6 6 6 6 6 5 5 5 5 5 5 5 5 5 5 5 6 6 6 6 7 7 7 6 6 6 6 6 6 7 7 8 8 9 10 11 12 13 14 14
6 6 7 7 7 7 7 6 6 5 4 4 3 3 2 1 -0 -1 -0 0 1 2 2 3 3 2 2 3 3 3 3 3 3 3 4 4 4 5 5 6 6 7 7 8 8 8 8 8 8 8 7 7 7 7 7 6 6 6 6 6 5 5 5 5 5 4 5 5 5 5 5 5 5 5 5 5 5 5 5 5 5 5 6 6 6 6 6 6 6 6 5 5 6 6 7 8 8 9 10 11 12 13 14
5 5 5 6 6 7 7 7 6 5 4 4 3 3 2 1 0 -1 -1 -0 0 1 1 2 2 2 2 1 1 1 1 1 1 2 2 2 3 3 3 3 3 4 4 4 4 5 5 5 5 5 4 4 4 4 4 4 4 4 4 4 4 4 4 4 4 4 4 4 4 4 4 5 5 5 5 5 5 5 5 5 5 5 5 5 5 6 6 6 6 5 5 5 5 5 6 6 7 8 8 9 11 12 14
4 4 4 5 6 6 7 7 6 6 5 4 3 3 2 2 1 -0 -1 -1 -1 -0 0 1 1 1 1 1 1 1 0 0 0 1 1 1 1 2 2 2 2 2 2 2 2 2 2 2 2 2 2 2 2 2 2 2 3 3 3 3 3 3 3 3 3 3 4 4 4 4 4 4 4 4 4 4 4 4 4 4 4 4 4 5 5 5 5 5 5 5 5 5 5 5 5 5 6 6 7 8 9 10 12
3 3 4 4 5 5 6 7 7 6 5 4 3 3 3 2 1 1 -0 -1 -1 -1 -1 -0 0 1 1 1 1 0 -0 -0 -0 -0 0 0 1 1 1 1 1 1 1 1 1 1 1 1 1 1 1 1 2 2 2 2 2 2 2 2 2 3 3 3 3 3 3 3 4 4 4 4 4 4 4 4 4 4 4 4 4 4 4 4 4 5 5 5 5 5 5 5 5 5 4 4 5 5 6 6 7 8 9
3 3 3 3 3 4 5 6 6 7 6 5 4 3 3 2 2 1 1 -0 -1 -1 -1 -1 -0 0 1 1 0 0 -0 -0 -0 -0 -0 -0 0 0 0 0 0 1 1 1 1 1 1 1 1 1 1 1 1 1 2 2 2 2 2 2 2 2 2 2 2 3 3 3 3 3 3 4 4 4 4 4 4 4 4 4 4 4 4 4 4 4 4 4 4 5 5 5 5 5 5 4 4 4 4 5 6 7 8
1 1 2 2 2 3 4 5 6 6 7 6 5 4 3 3 2 2 1 1 -0 -1 -1 -1 -1 -1 -0 0 0 0 -0 -0 -0 -0 -0 -0 -0 -0 -0 -0 0 0 0 0 0 0 0 1 1 1 1 1 1 1 1 1 1 2 2 2 2 2 2 2 2 2 2 2 3 3 3 3 3 3 3 4 4 4 4 4 4 4 4 5 4 4 4 4 4 4 4 5 5 5 5 5 4 4 4 4 5 6 7
0 -0 0 0 1 1 2 3 4 5 6 6 6 5 4 3 3 2 2 1 1 -0 -1 -1 -1 -1 -1 -1 -0 -0 -0 -0 -0 -0 -0 -0 -0 -0 -0 -0 -0 -0 -0 -0 -0 0 0 0 0 1 1 1 1 1 1 1 1 1 2 2 2 2 2 2 2 2 2 2 2 3 3 3 3 3 3 3 3 3 3 4 4 4 4 5 5 5 5 4 4 4 4 5 5 5 5 5 5 5 4 4 5 5 6
-1 -1 -1 -1 -1 -0 1 1 2 4 5 6 6 6 5 4 3 3 2 2 1 1 0 -1 -1 -1 -1 -1 -1 -1 -0 -0 -0 -0 -0 -0 -0 -0 -0 -0 -0 -0 -0 -0 -0 -0 -0 0 0 0 1 1 1 1 1 1 1 1 2 2 2 2 2 2 2 2 2 2 2 3 3 3 3 3 3 3 3 3 3 3 4 4 4 5 5 5 5 5 4 4 4 5 5 5 5 6 5 5 5 5 5 5 5
-1 -1 -1 -1 -1 -1 -1 -0 1 2 3 4 6 6 6 5 4 3 3 2 2 1 1 0 -0 -1 -1 -1 -1 -1 -1 -1 -0 -0 -0 -0 -0 -0 -0 -0 -0 -0 -0 -0 -0 -0 -0 -0 0 0 0 1 1 1 1 1 1 1 2 2 2 2 2 2 2 2 3 3 3 3 3 3 3 3 3 3 3 3 3 3 4 4 4 4 5 5 5 5 5 5 4 5 5 5 5 6 6 6 6 5 5 5 5
-0 -0 -1 -1 -1 -1 -2 -1 -1 0 1 3 4 6 7 6 5 4 3 3 2 2 1 1 1 0 -1 -1 -1 -1 -1 -1 -0 -0 -0 -0 -0 -0 -0 -0 -0 -0 -0 -0 -0 -0 -0 -0 -0 0 0 1 1 1 1 1 1 2 2 2 2 2 2 2 3 3 3 3 3 3 3 3 3 3 3 3 3 3 3 3 3 4 4 4 4 5 4 4 4 4 4 4 5 5 5 6 6 6 6 6 6 6 6
0 -0 -0 -0 -1 -1 -2 -2 -2 -1 -0 1 3 4 6 7 6 6 4 3 3 2 2 2 1 1 0 -0 -0 -0 -1 -0 -0 -0 -0 0 0 -0 -0 -0 -0 -0 -0 -0 -0 -0 -0 -0 -0 0 0 0 1 1 1 1 1 1 2 2 2 2 2 2 3 3 3 3 3 3 3 3 3 3 3 3 3 3 3 3 3 3 4 4 4 4 4 4 4 4 4 4 4 4 5 5 6 6 6 6 7 7 7
0 0 -0 -0 -1 -1 -1 -2 -2 -2 -1 0 2 3 5 6 7 7 6 4 3 2 2 2 2 1 1 1 0 0 -0 -0 -0 -0 0 0 0 0 -0 -0 -0 -0 -0 -0 -0 -0 -0 -0 -0 0 0 0 1 1 1 1 1 1 2 2 2 2 2 2 3 3 3 3 3 3 3 3 3 3 3 3 3 3 3 3 3 3 4 4 4 4 4 3 3 3 3 3 3 3 4 4 5 5 6 6 7 7 7
1 0 -0 -1 -1 -2 -2 -2 -3 -2 -2 -0 1 3 4 5 7 7 7 5 4 3 2 2 2 2 2 1 1 1 1 0 0 0 0 0 0 0 0 0 -0 -0 -0 -0 -0 -0 -0 -0 0 0 0 1 1 1 1 1 1 1 2 2 2 2 2 3 3 3 3 3 3 3 3 3 3 3 3 3 3 3 3 3 3 3 3 3 4 3 3 3 3 3 2 2 3 3 3 3 4 4 5 6 6 7 7
1 1 -0 -1 -2 -2 -2 -3 -3 -2 -2 -0 1 3 4 5 6 7 7 7 5 4 3 2 2 2 2 2 1 1 1 1 1 1 1 1 1 1 0 0 0 0 0 0 0 0 0 0 1 1 1 1 1 1 1 1 1 2 2 2 2 3 3 3 3 3 3 3 3 3 3 3 3 3 3 3 3 3 3 3 3 3 3 3 3 3 3 3 2 2 2 2 2 2 2 3 3 3 4 5 5 6 7
2 1 -0 -1 -2 -2 -2 -2 -2 -2 -1 0 2 3 5 5 6 7 7 7 7 5 4 3 2 1 2 2 1 1 1 1 1 1 1 1 1 1 1 1 1 1 1 1 1 1 1 1 1 1 1 2 2 2 2 2 2 2 2 3 3 3 3 3 3 4 4 4 4 4 4 4 4 4 3 3 3 3 3 3 3 3 3 3 3 3 3 2 2 2 2 2 2 2 2 3 3 3 4 4 5 5 6
2 1 1 -0 -1 -1 -1 -1 -1 -1 0 1 3 4 5 6 6 6 7 7 7 6 5 3 2 1 1 1 1 1 1 1 1 1 1 1 1 1 1 1 1 1 1 1 1 2 2 2 2 2 2 2 2 3 3 3 3 3 3 3 3 4 4 4 4 4 4 4 4 4 4 4 4 3 3 3 3 3 3 3 3 3 3 3 3 3 3 2 2 2 2 2 2 3 3 3 3 3 4 4 4 5 5
2 1 1 0 -0 -0 -0 -0 0 1 1 3 4 5 6 7 7 7 7 7 7 7 6 4 3 2 1 1 1 1 1 1 1 1 1 1 1 1 1 1 1 1 1 2 2 2 2 2 2 3 3 3 3 3 3 3 4 4 4 4 4 4 5 5 5 5 4 4 4 4 4 4 4 4 3 4 4 4 4 4 3 3 3 3 3 3 3 3 3 2 3 3 3 3 3 3 3 4 4 4 4 4 5
2 2 2 1 1 1 1 1 1 2 3 4 5 6 7 7 8 8 8 8 8 7 6 5 3 2 1 1 1 1 1 1 1 1 1 1 1 1 1 1 1 1 1 2 2 2 2 2 3 3 3 3 3 3 3 4 4 4 4 5 5 5 5 5 5 5 5 5 4 4 4 4 4 4 4 4 4 4 4 4 4 4 3 3 3 3 3 3 3 3 3 3 4 4 4 4 4 4 4 4 4 4 4
3 2 2 2 2 2 2 2 2 3 4 5 6 7 8 8 8 8 8 8 8 8 7 6 5 3 2 1 1 1 1 1 1 1 1 1 1 1 1 1 1 1 1 1 2 2 2 2 2 3 3 3 3 3 3 3 4 4 4 5 5 5 5 5 5 5 5 5 5 5 4 4 4 4 4 4 4 4 4 4 4 4 4 4 3 3 3 3 3 4 4 4 4 4 5 5 4 4 4 4 4 4 4
3 3 3 3 3 3 3 3 4 5 6 7 8 9 9 8 8 8 8 9 9 9 9 7 6 5 3 2 1 1 1 1 1 1 1 1 1 1 0 1 1 1 1 1 1 2 2 2 2 2 2 2 2 2 2 3 3 4 4 5 5 5 5 5 5 5 5 5 5 5 5 5 5 4 4 4 4 4 4 4 4 4 4 4 4 4 4 4 4 4 4 5 5 5 5 5 5 5 4 4 4 4 4
4 3 3 3 4 4 4 4 5 6 7 8 9 9 9 8 8 8 8 8 9 9 9 8 7 6 5 3 2 2 1 1 1 1 1 1 1 1 0 0 1 1 1 1 1 1 2 2 2 2 2 2 1 1 2 2 2 3 4 5 5 5 5 5 5 5 5 5 5 5 5 5 5 5 5 5 5 4 5 5 5 4 4 4 4 4 4 4 5 5 5 5 5 5 6 6 5 5 5 4 4 4 4
4 4 4 4 5 5 5 5 6 7 8 9 9 9 8 8 8 7 7 8 8 9 9 9 8 7 6 4 3 2 2 1 1 1 1 1 1 0 0 0 1 1 1 1 1 1 1 1 1 1 1 1 1 1 1 1 2 3 4 4 5 5 5 5 5 5 6 6 6 6 5 5 5 5 5 5 5 5 5 5 5 5 5 5 5 5 5 5 5 5 5 5 6 6 6 6 6 6 5 5 5 4 4
5 5 5 6 6 6 6 7 7 8 8 9 9 9 8 8 8 8 8 8 8 9 9 9 8 8 7 6 4 3 2 2 1 1 1 1 1 1 0 0 0 1 1 1 1 1 1 1 1 1 1 1 1 0 1 1 2 3 4 4 5 5 6 6 6 6 6 6 6 6 6 6 5 5 5 5 5 5 5 5 5 5 5 5 5 5 5 5 6 6 6 6 6 6 6 6 6 6 6 6 5 5 4
6 6 6 7 7 7 7 8 7 7 8 8 9 8 8 8 8 8 8 8 8 8 9 9 9 8 8 7 6 5 3 2 1 1 1 1 1 1 1 1 1 1 1 1 1 2 2 2 2 1 1 1 0 0 0 1 2 3 4 5 5 6 6 6 6 6 6 6 6 6 6 5 5 5 5 5 5 5 5 5 5 5 5 5 5 6 6 6 6 6 6 6 6 6 6 6 7 7 7 7 6 5 4
7 7 7 7 7 7 7 7 7 6 7 7 8 8 8 8 8 8 8 8 8 9 9 9 9 9 9 8 7 6 5 4 3 2 2 2 1 1 1 1 1 1 1 1 2 2 2 2 2 1 1 1 1 1 1 1 3 4 5 5 6 6 6 6 6 6 6 6 6 6 5 5 5 5 5 5 5 5 5 5 5 5 5 6 6 6 6 6 6 6 6 6 6 6 6 7 7 7 8 7 7 6 4
8 8 8 8 8 8 7 6 6 6 6 6 7 7 7 7 8 8 8 8 8 9 9 9 9 10 10 10 9 8 7 5 4 4 3 2 2 2 1 1 1 1 1 2 2 2 2 2 2 1 1 1 1 1 1 2 3 4 5 6 6 6 6 6 6 6 6 6 6 6 5 5 5 5 5 5 5 5 5 5 5 6 6 6 6 6 7 7 7 7 7 7 7 7 7 7 7 8 8 8 7 6 4
9 9 9 9 8 8 7 6 6 5 6 6 6 7 7 7 7 8 8 8 8 8 8 9 9 10 10 11 10 9 8 7 6 5 4 3 3 2 2 2 1 2 2 2 2 2 2 2 2 1 1 1 1 1 1 3 4 5 6 6 6 6 6 5 5 5 5 5 5 5 5 5 5 5 5 5 5 5 5 6 6 6 6 6 7 7 7 7 7 7 7 7 7 7 7 8 8 8 8 7 6 5 4
11 11 10 10 9 8 7 7 6 6 6 6 6 6 6 6 7 7 7 7 7 7 8 8 9 9 10 11 11 10 9 9 8 7 6 5 4 3 3 2 2 2 3 3 2 2 2 2 2 2 1 1 1 1 2 3 4 5 5 5 5 5 5 5 5 5 5 5 5 5 5 5 5 5 5 5 5 5 5 6 6 6 7 7 7 7 7 7 7 7 7 7 7 7 8 8 8 8 8 7 5 4 4
11 11 11 10 9 8 8 7 7 7 7 7 6 6 6 5 5 6 6 6 6 7 7 8 8 9 10 10 11 11 10 10 9 8 7 6 5 4 4 3 3 3 3 3 3 3 3 2 2 2 2 1 2 2 2 3 4 4 5 5 5 5 5 5 4 4 5 5 5 5 5 5 5 5 5 5 5 5 6 6 6 6 7 7 7 7 8 8 8 8 8 8 8 8 8 8 8 8 7 6 5 4 4
11 11 10 10 9 9 8 8 8 8 7 7 6 5 5 4 5 5 5 5 6 6 6 7 7 8 9 9 10 10 11 11 10 9 8 7 6 6 5 4 4 4 4 3 3 3 3 3 2 2 2 2 2 3 3 4 4 4 5 5 5 5 5 4 4 4 4 5 5 5 6 6 6 6 5 5 5 5 6 6 6 7 7 7 7 8 8 8 8 8 9 9 9 9 9 8 7 7 6 5 5 5 6
11 11 10 10 9 9 9 9 8 8 7 6 5 4 4 4 4 4 5 5 5 6 6 6 6 7 7 8 9 9 10 10 10 10 9 8 8 7 6 5 5 5 4 4 4 3 3 3 2 2 2 2 3 3 4 5 5 5 4 4 4 4 4 4 4 4 4 5 5 6 6 6 6 6 6 6 6 6 6 6 7 7 7 8 8 8 8 9 9 9 9 9 9 9 8 7 6 6 5 5 6 6 7
9 10 10 10 10 10 10 10 9 8 7 6 5 5 4 5 5 5 5 5 5 5 6 6 6 6 6 6 7 8 8 9 9 9 9 9 8 8 7 7 6 6 5 5 4 4 3 3 3 2 3 3 3 4 5 5 5 4 4 4 4 4 4 4 4 4 4 5 5 6 6 6 6 6 6 6 6 7 7 7 7 8 8 8 8 8 9 9 9 10 10 9 9 8 7 6 6 5 5 6 7 7 7
9 9 10 10 11 11 10 10 9 8 7 7 6 6 6 6 6 6 5 5 5 5 5 6 6 5 5 5 6 6 6 7 8 8 8 8 8 8 8 8 7 7 6 6 5 5 4 4 3 3 3 4 4 5 5 5 5 4 4 4 4 4 4 4 4 4 4 5 5 6 6 6 6 7 7 7 7 7 7 8 8 8 9 9 9 9 9 10 10 10 10 9 8 7 6 6 6 6 7 7 7 7 5
9 9 9 9 10 10 9 9 9 8 8 8 8 8 8 8 7 7 6 6 6 6 6 5 5 5 5 5 5 5 6 6 7 7 7 8 8 8 8 8 8 8 7 7 6 6 5 5 5 5 5 5 5 5 5 5 5 4 4 4 4 4 5 5 5 5 5 5 5 6 6 6 6 6 7 7 7 7 8 8 9 9 9 9 10 10 10 10 10 10 9 8 7 6 6 6 6 7 7 7 5 4 2
10 10 10 10 10 10 10 9 9 9 9 9 10 10 10 10 9 8 8 7 7 6 6 6 5 5 5 5 5 6 6 6 7 7 7 8 8 8 9 9 9 8 8 8 7 7 6 6 6 6 5 5 5 5 5 5 5 4 4 4 4 5 5 5 5 5 5 6 6 6 6 6 6 6 6 7 7 8 8 9 9 9 10 10 10 11 11 11 10 10 9 8 6 5 5 5 6 6 6 5 3 1 0
12 12 12 13 12 12 12 12 11 11 11 11 12 12 12 12 11 10 9 9 9 8 7 7 7 7 7 7 7 7 8 8 8 8 8 9 9 9 9 10 9 8 8 8 8 7 7 6 6 6 5 5 5 5 5 5 5 4 4 4 5 6 6 6 6 6 6 6 7 7 7 6 6 6 6 7 7 8 8 9 9 10 10 10 11 11 11 11 10 9 8 6 5 4 4 5 5 5 4 3 2 2 2
12 13 13 14 14 14 15 14 14 13 13 13 14 14 14 14 13 12 12 12 11 11 10 9 9 9 9 10 10 10 10 10 9 9 9 9 10 10 10 10 9 8 7 7 7 6 6 6 5 5 5 5 5 5 5 5 5 4 4 5 6 7 7 7 7 7 7 7 7 8 7 7 7 7 7 7 7 8 9 9 10 10 10 11 11 11 10 10 9 7 6 5 4 4 4 5 5 5 4 3 3 4 6
11 11 11 12 12 13 13 13 13 13 14 14 14 14 14 14 14 14 14 14 14 13 13 12 12 11 11 11 12 11 11 10 10 9 9 9 9 9 9 8 7 7 6 5 5 5 5 4 4 4 4 5 5 5 6 5 5 4 5 6 7 8 9 8 8 8 8 8 8 8 8 8 8 8 8 8 8 9 9 9 10 10 10 10 10 10 9 8 6 5 4 3 3 4 5 5 5 5 4 4 5 7 9
8 8 8 8 8 8 9 9 10 10 10 11 11 11 11 12 12 12 12 12 12 12 12 12 11 11 11 11 11 10 10 9 8 8 6 7 7 8 7 5 4 4 5 4 4 4 4 3 4 4 4 5 6 6 5 5 5 5 6 7 8 9 9 8 8 7 7 7 8 8 8 8 8 8 8 9 9 9 9 9 10 10 10 10 9 9 8 6 4 3 3 3 4 5 6 6 6 5 5 6 8 9 11
6 6 6 5 5 5 5 5 6 6 6 6 6 6 6 6 6 7 7 7 7 7 7 7 7 7 6 6 7 7 7 6 5 5 4 4 4 5 5 4 3 3 4 4 4 3 3 3 4 5 6 6 6 5 5 5 6 6 7 8 8 9 8 8 7 7 7 7 7 8 8 8 8 8 9 9 9 10 10 10 10 10 10 9 9 8 7 5 4 3 3 4 5 6 6 6 6 7 8 9 10 11 12
5 5 4 4 4 4 3 3 4 4 4 3 3 3 3 2 2 2 2 2 2 2 1 2 2 2 2 2 3 3 4 3 2 1 3 4 3 2 1 3 3 3 3 4 4 3 3 4 5 6 7 6 6 5 5 6 6 7 8 8 8 8 7 7 6 6 6 7 7 7 8 8 8 8 8 9 9 10 10 10 9 9 9 8 7 7 5 4 4 4 5 6 6 7 7 8 8 9 10 11 11 12 12
4 4 4 3 3 3 3 3 3 3 2 2 2 2 1 1 1 1 1 0 1 1 0 -0 0 1 2 1 1 1 1 1 0 1 1 3 3 2 0 0 1 2 3 4 4 5 5 6 7 7 6 6 5 5 6 7 7 7 7 7 7 7 7 7 6 6 6 6 7 7 7 7 8 8 8 9 9 9 9 9 9 9 8 7 6 5 4 4 4 5 6 6 7 7 8 9 10 10 11 11 12 12 13
3 3 3 3 3 2 2 2 2 2 2 2 2 2 2 2 2 2 2 2 1 2 2 1 -0 1 3 3 2 1 2 1 2 3 3 2 2 3 2 0 1 3 3 3 4 6 7 8 7 7 5 5 6 7 7 7 7 7 7 7 7 7 7 6 6 6 6 7 7 7 7 7 8 8 8 8 8 9 9 9 8 8 7 6 5 4 4 4 5 6 7 7 8 9 9 10 10 10 11 12 12 13 14
2 2 2 2 2 2 2 2 2 2 2 3 3 3 3 3 3 3 4 4 4 4 4 4 3 2 3 4 5 4 5 4 4 4 6 3 2 2 4 5 5 5 3 1 1 3 8 7 6 6 5 5 6 7 7 7 7 7 7 7 7 7 7 6 6 6 6 7 7 8 7 8 8 8 8 8 8 8 8 8 8 7 6 5 5 5 5 6 7 7 7 8 9 9 9 9 9 10 11 12 13 14 14
3 3 3 3 3 3 3 3 3 4 4 4 4 4 4 5 5 5 6 6 6 6 6 6 6 6 4 6 7 6 6 7 6 6 7 7 5 3 5 8 8 6 5 5 3 3 6 6 4 3 4 6 6 6 6 7 7 7 7 8 7 7 7 7 6 7 7 8 8 7 7 8 8 8 8 8 8 8 8 8 7 6 5 6 6 7 7 8 8 8 8 8 9 9 9 9 9 10 12 13 14 14 14
4 4 4 4 4 5 5 5 5 5 6 6 6 6 6 7 7 7 7 7 7 7 7 7 8 8 8 8 8 9 8 8 8 8 8 9 9 8 5 5 6 7 7 10 9 7 5 4 3 3 3 6 6 6 7 7 7 7 7 7 7 7 7 7 7 7 8 8 8 8 8 7 7 8 8 8 7 8 8 7 7 6 6 6 7 8 8 8 8 8 8 9 10 10 9 9 10 11 13 14 13 13 12
6 6 6 6 7 7 7 7 7 7 7 7 7 7 7 7 7 7 8 8 8 8 8 7 8 8 8 8 8 8 8 8 9 9 8 7 9 9 8 6 5 5 6 8 10 9 7 4 3 3 5 5 5 5 5 6 6 6 6 7 7 8 7 7 7 7 7 7 8 8 8 8 8 8 8 7 7 8 8 7 7 7 7 7 8 8 8 8 8 8 9 10 11 11 10 10 11 12 14 13 12 10 10
7 7 7 8 8 8 8 8 8 7 7 7 7 7 7 7 7 7 7 7 7 7 7 6 6 6 7 6 6 6 6 6 7 7 7 6 5 6 8 8 7 5 4 3 4 5 6 5 4 4 3 5 5 4 3 4 5 5 6 6 7 7 7 8 8 8 8 8 8 8 9 9 9 9 8 8 8 8 8 8 8 8 7 8 8 8 8 8 8 9 10 11 12 11 11 11 12 13 14 12 9 8 7
8 8 8 8 8 8 8 8 7 7 7 7 7 6 6 6 5 5 5 5 4 4 4 4 4 4 4 4 4 3 3 4 4 4 5 4 4 5 6 6 7 7 7 6 5 3 2 6 7 7 3 4 5 5 4 4 5 6 7 7 7 7 8 8 9 9 9 9 9 9 9 9 9 9 9 9 9 9 9 9 9 9 8 8 8 8 8 8 9 9 11 12 13 13 12 13 13 14 13 10 7 5 5
7 7 7 7 6 6 6 6 6 5 5 5 5 5 4 4 3 3 3 3 2 2 2 3 3 2 2 2 2 2 2 2 3 3 3 4 5 6 6 6 6 6 7 8 9 8 5 7 9 9 8 8 8 8 8 8 8 8 8 8 9 9 9 9 9 9 10 10 10 9 8 9 9 9 9 9 9 9 9 9 9 9 8 7 7 7 8 9 10 10 12 13 13 13 13 14 14 14 13 9 5 2 3
5 5 5 4 4 4 4 4 3 3 3 3 3 2 2 2 2 2 2 1 1 1 1 2 2 2 2 2 2 2 3 3 4 4 3 4 6 7 7 7 7 7 8 8 9 10 11 11 11 11 14 13 11 10 11 12 11 11 10 10 10 11 10 10 10 10 10 9 9 8 7 6 7 7 7 7 6 6 6 7 7 7 7 6 7 8 9 10 11 12 12 13 13 13 13 14 14 14 13 9 4 0 1
3 3 3 3 3 2 2 2 2 2 2 2 2 2 2 2 2 2 2 2 2 2 2 3 3 3 3 3 4 4 5 5 6 7 6 7 8 8 9 9 9 9 10 10 10 10 12 14 15 15 15 15 14 14 14 13 12 11 10 11 10 10 9 9 9 9 9 7 6 6 5 5 5 5 5 5 4 4 4 5 5 6 6 7 8 10 11 12 12 13 13 13 12 12 13 13 14 14 13 10 5 1 1
Height
5868 5868 5867 5867 5866 5866 5866 5865 5865 5864 5864 5863 5863 5862 5861 5861 5860 5859 5859 5858 5857 5856 5855 5854 5853 5852 5851 5850 5849 5848 5847 5846 5845 5844 5843 5841 5841 5840 5839 5838 5837 5836 5836 5835 5834 5833 5832 5831 5830 5829 5829 5828 5828 5827 5826 5826 5825 5824 5823 5822 5822 5821 5820 5820 5819 5818 5817 5816 5816 5815 5814 5814 5813 5812 5811 5810 5809 5808 5807 5806 5806 5805 5804 5803 5802 5801 5800 5799 5799 5798 5797 5796 5795 5794 5794 5793 5792 5791 5791 5790 5790 5789 5789
5867 5867 5866 5866 5866 5865 5865 5864 5864 5863 5863 5862 5862 5861 5861 5860 5859 5859 5858 5857 5856 5855 5854 5853 5852 5851 5850 5849 5848 5847 5846 5845 5844 5843 5841 5841 5840 5839 5838 5837 5836 5835 5834 5833 5833 5832 5831 5830 5829 5828 5827 5827 5826 5826 5825 5824 5823 5823 5822 5821 5821 5820 5819 5818 5817 5817 5816 5815 5815 5814 5813 5812 5811 5811 5810 5809 5808 5807 5806 5805 5804 5803 5802 5801 5801 5800 5799 5798 5797 5796 5796 5795 5794 5793 5792 5791 5791 5790 5789 5789 5788 5788 5787
5866 5866 5865 5865 5865 5864 5864 5863 5863 5862 5862 5861 5861 5860 5860 5859 5858 5858 5857 5856 5855 5854 5853 5852 5851 5850 5849 5848 5847 5846 5845 5844 5843 5841 5841 5840 5839 5837 5836 5836 5835 5834 5833 5832 5831 5831 5830 5829 5828 5827 5826 5826 5825 5824 5824 5823 5822 5821 5821 5820 5819 5818 5818 5817 5816 5816 5815 5814 5813 5812 5812 5811 5810 5809 5808 5807 5807 5806 5805 5804 5803 5802 5801 5800 5799 5798 5798 5797 5796 5795 5795 5794 5793 5792 5791 5790 5789 5789 5788 5787 5787 5786 5786
5865 5865 5864 5864 5864 5863 5863 5862 5862 5861 5861 5860 5860 5859 5859 5858 5857 5857 5856 5855 5854 5853 5852 5851 5850 5849 5848 5847 5846 5845 5844 5843 5841 5841 5840 5839 5837 5836 5836 5835 5834 5833 5832 5831 5830 5829 5829 5828 5827 5826 5825 5824 5824 5823 5822 5821 5821 5820 5819 5819 5818 5817 5816 5816 5815 5814 5814 5813 5812 5811 5811 5810 5809 5808 5807 5806 5806 5805 5804 5803 5802 5801 5800 5799 5798 5797 5796 5796 5795 5794 5793 5792 5791 5791 5790 5789 5788 5787 5786 5786 5785 5785 5784
5864 5864 5863 5863 5862 5862 5862 5861 5861 5860 5860 5859 5859 5858 5858 5857 5856 5856 5855 5854 5853 5852 5851 5850 5849 5848 5847 5846 5845 5844 5843 5841 5841 5840 5839 5838 5836 5836 5834 5833 5832 5831 5831 5830 5829 5828 5827 5826 5826 5825 5824 5823 5822 5822 5821 5820 5820 5819 5818 5817 5817 5816 5816 5815 5814 5813 5813 5812 5811 5810 5810 5809 5808 5807 5806 5806 5805 5803 5802 5801 5801 5800 5799 5798 5797 5796 5795 5794 5793 5792 5792 5791 5790 5789 5788 5787 5786 5786 5785 5784 5784 5783 5782
5863 5863 5862 5862 5861 5861 5861 5860 5860 5859 5859 5858 5858 5857 5857 5856 5856 5855 5854 5853 5853 5852 5851 5850 5848 5847 5846 5845 5844 5843 5842 5841 5840 5839 5838 5837 5836 5835 5833 5832 5831 5831 5830 5829 5828 5827 5826 5826 5825 5824 5823 5822 5821 5821 5820 5819 5818 5818 5817 5816 5816 5815 5815 5814 5813 5812 5811 5811 5810 5809 5808 5808 5807 5806 5805 5804 5803 5802 5801 5801 5800 5798 5797 5796 5796 5795 5794 5793 5792 5791 5790 5789 5789 5788 5787 5786 5785 5784 5783 5783 5782 5781 5781
5862 5862 5861 5861 5861 5860 5860 5859 5859 5858 5858 5857 5857 5856 5856 5855 5855 5854 5853 5852 5852 5851 5850 5849 5847 5846 5845 5844 5843 5842 5841 5840 5839 5838 5837 5836 5835 5834 5833 5831 5831 5830 5829 5828 5827 5826 5825 5825 5824 5823 5822 5821 5820 5820 5819 5818 5817 5817 5816 5816 5815 5814 5813 5813 5812 5811 5811 5810 5809 5808 5807 5806 5806 5805 5804 5803 5802 5801 5800 5799 5798 5797 5796 5795 5794 5793 5792 5791 5791 5790 5789 5788 5787 5786 5786 5785 5784 5783 5782 5781 5781 5780 5779
5861 5861 5860 5860 5860 5859 5859 5858 5858 5857 5857 5856 5856 5855 5855 5854 5853 5853 5852 5851 5851 5850 5849 5848 5846 5846 5844 5843 5842 5841 5840 5839 5838 5837 5836 5835 5834 5833 5832 5831 5830 5829 5828 5827 5826 5825 5824 5823 5823 5822 5821 5820 5819 5819 5818 5817 5816 5816 5815 5815 5814 5813 5812 5812 5811 5810 5810 5809 5808 5807 5806 5806 5805 5804 5803 5802 5801 5800 5799 5798 5797 5796 5795 5794 5793 5792 5791 5790 5789 5788 5787 5786 5786 5785 5784 5783 5782 5781 5781 5780 5779 5778 5777
5860 5860 5859 5859 5858 5858 5858 5857 5857 5856 5856 5855 5855 5854 5853 5853 5852 5852 5851 5850 5850 5849 5848 5846 5846 5845 5843 5842 5841 5841 5840 5839 5837 5836 5836 5834 5833 5832 5831 5830 5829 5828 5827 5826 5825 5824 5824 5823 5822 5821 5820 5819 5819 5818 5817 5816 5816 5815 5814 5814 5813 5812 5811 5811 5810 5809 5808 5808 5807 5806 5805 5804 5803 5803 5802 5801 5800 5799 5798 5797 5796 5795 5794 5793 5792 5791 5790 5789 5788 5787 5786 5785 5784 5783 5782 5782 5781 5780 5779 5778 5777 5777 5776
5859 5858 5858 5858 5857 5857 5857 5856 5856 5855 5855 5854 5854 5853 5852 5852 5851 5851 5850 5849 5848 5847 5846 5846 5845 5844 5843 5842 5841 5840 5839 5838 5837 5836 5835 5834 5833 5832 5831 5830 5829 5828 5827 5826 5825 5824 5823 5822 5821 5820 5820 5819 5818 5817 5816 5816 5815 5814 5813 5813 5812 5811 5811 5810 5809 5808 5807 5806 5806 5805 5804 5803 5802 5801 5801 5800 5799 5798 5797 5796 5795 5794 5793 5792 5791 5790 5789 5788 5786 5786 5785 5784 5783 5782 5781 5780 5779 5779 5778 5777 5776 5775 5774
5858 5857 5857 5857 5856 5856 5856 5855 5855 5854 5854 5853 5852 5852 5851 5851 5850 5849 5849 5848 5847 5846 5846 5845 5844 5843 5842 5841 5840 5839 5838 5837 5836 5835 5834 5833 5832 5831 5830 5829 5828 5827 5826 5825 5824 5823 5822 5821 5821 5820 5819 5818 5817 5816 5816 5815 5814 5813 5812 5812 5811 5810 5810 5809 5808 5807 5806 5805 5804 5804 5803 5802 5801 5800 5799 5798 5797 5796 5796 5795 5794 5793 5791 5791 5790 5788 5787 5786 5785 5784 5783 5782 5781 5781 5780 5779 5778 5777 5776 5775 5774 5774 5773
5856 5856 5856 5856 5855 5855 5855 5854 5854 5853 5853 5852 5851 5851 5850 5849 5849 5848 5847 5847 5846 5845 5845 5844 5843 5842 5841 5840 5839 5838 5837 5836 5836 5835 5834 5833 5831 5831 5829 5828 5827 5826 5825 5824 5823 5822 5821 5821 5820 5819 5818 5817 5816 5816 5815 5814 5813 5812 5811 5811 5810 5809 5808 5807 5806 5806 5805 5804 5803 5802 5801 5801 5800 5799 5798 5797 5796 5795 5794 5793 5792 5791 5790 5789 5788 5787 5786 5785 5784 5783 5782 5781 5780 5779 5778 5777 5776 5776 5775 5774 5773 5772 5771
5856 5855 5855 5854 5854 5854 5853 5853 5852 5852 5851 5851 5850 5850 5849 5848 5847 5847 5846 5846 5845 5844 5843 5842 5842 5841 5840 5839 5838 5837 5836 5836 5835 5834 5833 5832 5831 5830 5829 5828 5826 5826 5825 5823 5822 5821 5821 5820 5819 5818 5817 5816 5815 5815 5814 5813 5812 5811 5811 5810 5809 5808 5807 5806 5805 5804 5804 5803 5802 5801 5800 5799 5798 5797 5796 5795 5795 5794 5793 5792 5791 5790 5789 5788 5787 5786 5785 5784 5783 5782 5781 5780 5779 5778 5776 5776 5775 5774 5773 5772 5771 5771 5770
5854 5854 5854 5853 5853 5852 5852 5851 5851 5851 5850 5850 5849 5848 5847 5847 5846 5846 5845 5844 5844 5843 5842 5841 5841 5840 5839 5838 5837 5836 5836 5835 5834 5833 5832 5831 5830 5829 5828 5827 5826 5825 5824 5823 5821 5821 5820 5819 5818 5817 5816 5815 5814 5813 5813 5812 5811 5810 5809 5808 5807 5806 5806 5805 5804 5803 5802 5801 5800 5799 5798 5797 5796 5796 5795 5794 5793 5792 5791 5790 5789 5788 5787 5786 5785 5784 5783 5782 5781 5780 5779 5778 5777 5776 5775 5774 5773 5772 5771 5771 5770 5769 5768
5853 5853 5852 5852 5852 5851 5851 5850 5850 5849 5849 5848 5848 5847 5846 5846 5845 5844 5843 5843 5842 5841 5841 5840 5839 5839 5838 5837 5836 5836 5835 5834 5833 5832 5831 5830 5829 5828 5827 5826 5825 5824 5823 5822 5821 5820 5819 5817 5816 5816 5815 5814 5813 5812 5811 5811 5810 5809 5808 5807 5806 5805 5804 5803 5802 5801 5801 5800 5799 5798 5797 5796 5795 5794 5793 5792 5791 5790 5789 5788 5787 5786 5786 5785 5784 5783 5782 5781 5780 5779 5778 5776 5776 5775 5774 5773 5771 5771 5770 5769 5768 5767 5766
5852 5852 5851 5851 5851 5850 5850 5849 5848 5848 5847 5847 5846 5846 5845 5844 5843 5843 5842 5841 5841 5840 5840 5839 5838 5837 5837 5836 5835 5834 5833 5832 5831 5831 5830 5829 5828 5827 5826 5825 5824 5823 5821 5821 5820 5819 5817 5816 5816 5815 5814 5813 5812 5811 5810 5809 5808 5807 5806 5806 5805 5804 5803 5802 5801 5800 5799 5798 5797 5796 5795 5794 5793 5792 5791 5790 5789 5788 5787 5786 5786 5785 5784 5783 5782 5781 5780 5779 5778 5777 5776 5775 5774 5773 5772 5771 5770 5769 5768 5767 5766 5765 5764
5851 5851 5850 5850 5849 5849 5848 5848 5847 5846 5846 5845 5845 5844 5843 5843 5842 5841 5841 5840 5839 5839 5838 5837 5837 5836 5835 5835 5834 5833 5832 5831 5830 5829 5828 5827 5826 5826 5825 5824 5822 5821 5821 5819 5818 5817 5816 5815 5814 5813 5812 5811 5810 5809 5808 5808 5807 5806 5805 5804 5803 5802 5801 5800 5799 5798 5797 5796 5795 5794 5793 5792 5791 5790 5789 5788 5787 5786 5786 5785 5784 5783 5782 5781 5780 5779 5778 5777 5776 5775 5774 5773 5772 5771 5770 5769 5768 5767 5766 5766 5765 5763 5762
5850 5849 5849 5848 5848 5847 5847 5846 5846 5845 5845 5844 5843 5843 5842 5841 5841 5840 5839 5838 5838 5837 5836 5836 5835 5835 5834 5833 5832 5831 5831 5830 5829 5828 5827 5826 5825 5824 5823 5822 5821 5820 5819 5818 5817 5816 5815 5814 5813 5812 5811 5810 5809 5808 5807 5806 5805 5804 5803 5802 5801 5800 5799 5798 5797 5796 5795 5794 5793 5792 5791 5790 5789 5788 5787 5786 5786 5785 5783 5782 5781 5781 5780 5779 5778 5777 5776 5775 5774 5773 5772 5771 5770 5769 5768 5767 5766 5766 5765 5764 5763 5762 5761
5848 5848 5847 5847 5846 5846 5845 5845 5844 5844 5843 5842 5842 5841 5840 5840 5839 5838 5837 5837 5836 5836 5835 5834 5833 5833 5832 5831 5831 5830 5829 5828 5827 5826 5826 5825 5824 5823 5822 5821 5820 5819 5818 5817 5816 5815 5814 5813 5811 5811 5810 5808 5807 5806 5806 5804 5804 5803 5802 5801 5800 5799 5797 5796 5796 5794 5793 5792 5791 5790 5789 5788 5787 5786 5785 5784 5783 5782 5781 5781 5780 5779 5778 5777 5776 5775 5774 5773 5772 5771 5770 5769 5768 5767 5766 5766 5765 5764 5763 5762 5761 5760 5759
5846 5846 5846 5845 5845 5844 5844 5843 5843 5842 5841 5841 5840 5839 5839 5838 5837 5836 5836 5835 5835 5834 5833 5832 5832 5831 5830 5830 5829 5828 5827 5826 5826 5825 5824 5823 5822 5821 5820 5819 5818 5817 5816 5815 5814 5813 5812 5811 5810 5809 5808 5807 5806 5805 5804 5803 5802 5801 5800 5799 5798 5797 5796 5795 5793 5792 5791 5790 5789 5788 5787 5786 5785 5784 5783 5782 5781 5780 5779 5778 5777 5776 5776 5775 5773 5772 5771 5771 5770 5769 5768 5767 5766 5765 5764 5763 5762 5761 5761 5760 5759 5758 5757
5845 5845 5844 5844 5843 5842 5842 5841 5841 5841 5840 5839 5838 5838 5837 5836 5836 5835 5834 5833 5833 5832 5831 5831 5830 5829 5828 5828 5827 5826 5826 5825 5824 5823 5822 5821 5820 5819 5818 5817 5816 5816 5815 5814 5813 5811 5811 5810 5808 5807 5806 5805 5804 5803 5802 5801 5800 5799 5798 5797 5796 5795 5793 5792 5791 5790 5789 5788 5787 5786 5785 5784 5783 5782 5781 5780 5779 5778 5777 5776 5775 5774 5773 5772 5771 5770 5769 5768 5767 5766 5765 5764 5764 5763 5762 5761 5760 5759 5758 5757 5756 5755 5754
5843 5843 5842 5842 5841 5841 5841 5840 5839 5839 5838 5837 5837 5836 5835 5834 5834 5833 5832 5831 5831 5830 5829 5829 5828 5827 5826 5826 5825 5824 5823 5823 5822 5821 5820 5819 5818 5817 5816 5816 5815 5814 5813 5812 5811 5810 5809 5808 5807 5806 5805 5803 5802 5801 5800 5799 5798 5796 5796 5795 5793 5792 5791 5790 5789 5788 5787 5786 5785 5784 5783 5781 5781 5780 5778 5777 5776 5776 5775 5774 5773 5772 5771 5770 5769 5768 5767 5766 5765 5764 5763 5762 5761 5760 5759 5758 5757 5756 5756 5755 5754 5753 5752
5841 5841 5841 5840 5840 5839 5839 5838 5837 5837 5836 5836 5835 5834 5833 5832 5832 5831 5830 5830 5829 5828 5827 5826 5826 5825 5824 5824 5823 5822 5821 5821 5820 5819 5818 5817 5816 5815 5814 5814 5813 5812 5811 5810 5809 5808 5807 5806 5805 5804 5803 5801 5800 5799 5798 5797 5796 5794 5793 5792 5791 5790 5789 5788 5787 5786 5785 5784 5782 5781 5780 5779 5778 5777 5776 5775 5774 5773 5772 5771 5770 5769 5769 5768 5767 5766 5765 5764 5762 5761 5760 5759 5758 5757 5756 5756 5754 5753 5752 5752 5751 5750 5749
5839 5839 5838 5838 5837 5837 5836 5836 5835 5835 5834 5834 5833 5832 5831 5831 5830 5829 5828 5827 5827 5826 5825 5825 5824 5823 5822 5821 5821 5820 5819 5818 5817 5817 5816 5815 5814 5813 5812 5811 5811 5810 5809 5808 5807 5806 5805 5804 5803 5802 5801 5799 5798 5797 5796 5795 5793 5792 5791 5790 5789 5788 5787 5786 5785 5783 5782 5781 5780 5779 5778 5777 5776 5775 5774 5773 5772 5771 5770 5769 5768 5767 5766 5765 5764 5763 5762 5761 5760 5759 5758 5757 5756 5755 5754 5753 5751 5751 5750 5749 5748 5747 5746
5837 5836 5836 5835 5835 5834 5834 5833 5833 5832 5832 5831 5831 5830 5829 5828 5827 5827 5826 5825 5825 5824 5823 5822 5821 5821 5820 5819 5818 5817 5817 5816 5815 5814 5813 5812 5811 5811 5810 5809 5808 5807 5806 5806 5805 5804 5803 5802 5801 5800 5798 5797 5796 5795 5794 5792 5791 5790 5789 5788 5786 5786 5784 5783 5782 5781 5780 5779 5778 5777 5776 5775 5773 5772 5771 5770 5769 5768 5767 5766 5765 5764 5764 5763 5762 5761 5760 5759 5758 5756 5756 5754 5753 5752 5751 5750 5749 5748 5747 5746 5745 5744 5743
5835 5834 5834 5833 5832 5832 5831 5831 5830 5830 5829 5829 5828 5828 5827 5826 5825 5825 5824 5823 5822 5821 5821 5820 5819 5818 5818 5817 5816 5815 5814 5814 5813 5812 5811 5810 5809 5808 5807 5806 5806 5805 5804 5803 5802 5801 5801 5799 5798 5797 5796 5795 5794 5793 5791 5790 5789 5788 5786 5785 5784 5783 5782 5781 5780 5779 5777 5776 5775 5774 5773 5772 5771 5770 5769 5768 5767 5766 5765 5764 5763 5762 5761 5760 5759 5758 5757 5756 5755 5754 5753 5752 5751 5750 5748 5747 5746 5745 5744 5743 5742 5741 5740
5833 5832 5831 5831 5830 5830 5829 5828 5828 5827 5827 5826 5826 5825 5825 5824 5823 5822 5821 5821 5820 5819 5818 5818 5817 5816 5815 5815 5814 5813 5812 5811 5810 5809 5808 5807 5806 5806 5805 5804 5803 5802 5801 5801 5800 5799 5798 5797 5796 5795 5794 5792 5791 5790 5789 5788 5787 5786 5784 5783 5782 5781 5780 5779 5777 5776 5775 5774 5773 5772 5771 5770 5768 5767 5766 5765 5764 5763 5762 5761 5760 5759 5758 5757 5756 5756 5755 5754 5753 5751 5751 5749 5748 5747 5746 5745 5743 5742 5741 5740 5739 5738 5737
5831 5830 5829 5828 5828 5827 5826 5826 5825 5825 5824 5824 5823 5823 5822 5821 5821 5820 5819 5818 5818 5817 5816 5815 5815 5814 5813 5812 5811 5811 5810 5809 5808 5807 5806 5805 5804 5803 5802 5801 5800 5800 5799 5798 5797 5796 5795 5794 5793 5792 5791 5790 5789 5788 5787 5786 5784 5783 5782 5781 5779 5778 5777 5776 5775 5774 5773 5772 5771 5769 5768 5767 5766 5765 5764 5763 5761 5761 5760 5759 5757 5756 5756 5755 5754 5753 5752 5751 5750 5749 5748 5747 5746 5744 5743 5742 5741 5740 5738 5737 5736 5735 5734
5829 5828 5827 5826 5825 5825 5824 5823 5823 5822 5822 5821 5821 5820 5820 5819 5818 5818 5817 5816 5815 5814 5814 5813 5812 5811 5811 5810 5809 5808 5807 5806 5805 5804 5803 5802 5801 5800 5799 5798 5797 5796 5796 5795 5794 5793 5792 5791 5791 5790 5789 5787 5786 5785 5784 5783 5782 5781 5780 5778 5777 5776 5775 5773 5772 5771 5770 5769 5768 5767 5766 5765 5763 5762 5761 5760 5759 5758 5757 5756 5755 5754 5753 5752 5751 5750 5749 5748 5747 5746 5745 5744 5743 5742 5741 5739 5738 5737 5736 5734 5733 5732 5731
5826 5826 5825 5824 5823 5822 5821 5821 5821 5820 5820 5819 5818 5818 5817 5816 5816 5815 5814 5813 5813 5812 5811 5810 5809 5809 5808 5807 5806 5806 5805 5804 5803 5802 5801 5800 5798 5797 5796 5795 5794 5793 5793 5792 5791 5791 5790 5789 5788 5787 5786 5785 5784 5783 5782 5781 5780 5778 5777 5776 5775 5773 5772 5771 5770 5769 5768 5767 5766 5764 5763 5762 5761 5760 5759 5757 5756 5755 5754 5753 5752 5751 5750 5749 5748 5747 5746 5745 5744 5743 5742 5741 5740 5739 5738 5736 5735 5734 5733 5731 5731 5729 5728
5824 5824 5823 5822 5821 5820 5820 5819 5818 5818 5817 5817 5816 5815 5814 5814 5813 5812 5811 5811 5810 5809 5808 5807 5806 5806 5805 5804 5804 5803 5802 5801 5800 5799 5798 5797 5796 5795 5793 5792 5791 5791 5790 5789 5788 5787 5786 5786 5785 5784 5783 5782 5781 5780 5779 5778 5777 5776 5775 5773 5772 5771 5769 5768 5767 5766 5765 5764 5763 5762 5761 5760 5758 5757 5756 5755 5754 5752 5751 5750 5749 5748 5747 5746 5745 5744 5743 5742 5741 5740 5739 5738 5737 5736 5735 5734 5732 5731 5730 5729 5728 5726 5725
5822 5821 5821 5820 5819 5818 5817 5817 5816 5815 5815 5814 5813 5812 5812 5811 5810 5809 5808 5808 5807 5806 5805 5804 5803 5803 5802 5801 5801 5800 5799 5798 5797 5796 5796 5794 5793 5792 5791 5790 5789 5787 5786 5786 5785 5784 5783 5782 5782 5781 5780 5779 5778 5777 5776 5775 5774 5773 5772 5771 5770 5768 5767 5765 5764 5763 5762 5761 5760 5759 5758 5757 5756 5755 5753 5752 5751 5750 5749 5747 5746 5746 5744 5743 5742 5741 5740 5739 5738 5737 5736 5735 5734 5733 5732 5731 5730 5728 5727 5726 5725 5724 5722
5820 5819 5818 5818 5817 5816 5815 5815 5814 5813 5812 5812 5811 5810 5809 5808 5807 5806 5806 5805 5804 5803 5802 5801 5801 5800 5799 5798 5797 5796 5796 5795 5794 5793 5792 5791 5790 5789 5788 5787 5786 5785 5784 5783 5782 5781 5780 5779 5778 5777 5777 5776 5775 5774 5773 5772 5771 5770 5769 5768 5767 5766 5764 5763 5761 5760 5759 5758 5756 5756 5755 5754 5753 5752 5751 5749 5748 5747 5746 5745 5744 5742 5741 5741 5740 5738 5737 5736 5735 5734 5733 5732 5731 5730 5729 5728 5727 5726 5724 5723 5722 5721 5720
5817 5816 5816 5815 5815 5814 5813 5812 5811 5811 5810 5809 5808 5807 5806 5806 5805 5804 5803 5802 5801 5800 5800 5799 5798 5797 5796 5795 5795 5794 5792 5791 5791 5790 5789 5788 5787 5786 5785 5784 5783 5782 5781 5780 5779 5778 5777 5776 5775 5774 5773 5772 5772 5771 5770 5769 5768 5767 5766 5765 5764 5763 5761 5760 5759 5757 5756 5755 5753 5752 5751 5751 5750 5749 5748 5746 5746 5744 5743 5742 5741 5740 5739 5738 5736 5736 5734 5733 5732 5731 5730 5729 5728 5727 5726 5725 5724 5722 5721 5720 5719 5718 5717
5815 5814 5814 5813 5812 5812 5811 5810 5809 5808 5807 5806 5806 5805 5804 5803 5802 5801 5800 5800 5799 5798 5797 5796 5795 5795 5794 5793 5792 5791 5790 5789 5788 5787 5786 5786 5784 5783 5782 5781 5780 5779 5778 5777 5776 5775 5774 5773 5772 5771 5770 5769 5768 5767 5766 5766 5765 5763 5762 5761 5760 5759 5758 5757 5756 5755 5753 5752 5751 5749 5748 5747 5746 5745 5744 5743 5742 5741 5740 5739 5738 5737 5736 5735 5734 5732 5731 5730 5729 5728 5727 5726 5725 5724 5722 5721 5720 5719 5718 5717 5716 5715 5714
5813 5812 5812 5811 5810 5810 5809 5808 5807 5806 5805 5804 5803 5802 5801 5801 5800 5799 5798 5797 5796 5795 5794 5794 5793 5792 5791 5791 5790 5788 5787 5786 5785 5785 5784 5783 5781 5781 5780 5778 5777 5776 5776 5775 5773 5772 5771 5770 5769 5768 5767 5766 5766 5765 5763 5762 5761 5760 5759 5758 5756 5756 5755 5754 5753 5751 5750 5749 5748 5746 5745 5744 5743 5742 5741 5740 5739 5738 5737 5736 5735 5734 5733 5731 5730 5729 5728 5727 5726 5725 5724 5722 5721 5720 5719 5718 5717 5716 5715 5714 5713 5712 5711
5811 5810 5810 5809 5808 5807 5806 5805 5804 5803 5803 5802 5801 5800 5799 5798 5797 5796 5795 5794 5793 5792 5792 5791 5790 5790 5789 5788 5787 5786 5785 5784 5783 5782 5781 5780 5779 5778 5777 5776 5775 5774 5773 5772 5771 5770 5769 5768 5766 5765 5764 5763 5762 5761 5761 5759 5758 5757 5756 5754 5753 5752 5751 5750 5749 5748 5747 5746 5745 5743 5742 5741 5740 5739 5738 5737 5736 5735 5734 5733 5731 5731 5729 5728 5727 5726 5725 5724 5722 5721 5720 5719 5718 5717 5716 5715 5714 5713 5712 5711 5710 5708 5707
5809 5808 5807 5807 5806 5805 5804 5803 5802 5801 5800 5799 5799 5798 5797 5796 5795 5794 5793 5792 5791 5790 5789 5788 5788 5787 5786 5785 5784 5783 5782 5781 5780 5779 5778 5777 5776 5775 5774 5773 5772 5771 5770 5769 5768 5767 5766 5765 5764 5762 5761 5760 5759 5758 5757 5756 5755 5754 5752 5751 5750 5749 5747 5746 5745 5744 5743 5742 5741 5740 5739 5738 5737 5736 5735 5733 5732 5731 5730 5729 5728 5727 5726 5725 5724 5723 5721 5720 5719 5718 5717 5716 5715 5713 5712 5711 5711 5710 5709 5707 5706 5705 5704
5807 5806 5805 5804 5804 5803 5801 5801 5800 5799 5798 5797 5796 5795 5794 5793 5792 5791 5790 5789 5788 5787 5786 5786 5785 5784 5783 5782 5781 5781 5779 5778 5777 5776 5775 5774 5773 5772 5771 5770 5769 5768 5767 5766 5765 5764 5763 5762 5761 5759 5758 5757 5756 5755 5754 5752 5751 5750 5749 5748 5747 5746 5744 5743 5741 5740 5739 5738 5737 5736 5735 5734 5733 5732 5731 5730 5729 5728 5727 5726 5725 5724 5723 5721 5721 5719 5718 5717 5716 5715 5713 5712 5711 5710 5709 5708 5707 5706 5705 5704 5703 5702 5701
5804 5804 5803 5802 5801 5800 5799 5798 5797 5796 5796 5795 5794 5792 5791 5791 5789 5788 5787 5786 5786 5785 5784 5783 5782 5781 5780 5779 5778 5777 5776 5775 5774 5773 5772 5771 5770 5768 5767 5766 5766 5765 5764 5763 5762 5761 5760 5758 5757 5756 5755 5754 5753 5751 5750 5749 5747 5746 5745 5744 5743 5742 5741 5740 5738 5737 5736 5734 5733 5732 5731 5730 5729 5728 5727 5726 5725 5724 5723 5722 5721 5720 5719 5718 5717 5716 5715 5713 5712 5711 5710 5709 5708 5706 5706 5705 5704 5703 5702 5701 5700 5699 5698
5802 5801 5800 5799 5798 5797 5796 5796 5795 5794 5793 5792 5791 5790 5789 5788 5787 5786 5785 5784 5783 5782 5781 5780 5779 5778 5778 5776 5776 5774 5773 5772 5771 5770 5768 5767 5766 5765 5764 5763 5762 5761 5760 5759 5758 5757 5756 5755 5754 5753 5752 5751 5749 5748 5747 5745 5743 5742 5741 5740 5739 5738 5737 5736 5735 5734 5732 5731 5730 5729 5728 5726 5726 5724 5723 5722 5721 5720 5719 5718 5717 5716 5715 5714 5713 5712 5711 5710 5709 5708 5706 5706 5705 5703 5702 5701 5700 5699 5698 5697 5696 5696 5694
5799 5798 5797 5797 5796 5795 5794 5793 5792 5791 5790 5789 5789 5787 5786 5785 5784 5783 5782 5781 5780 5779 5778 5777 5776 5775 5775 5774 5773 5771 5771 5769 5768 5766 5765 5764 5763 5762 5761 5760 5759 5758 5757 5756 5755 5754 5753 5752 5751 5750 5749 5747 5746 5745 5743 5741 5740 5738 5737 5736 5735 5734 5733 5732 5731 5730 5729 5727 5726 5725 5724 5723 5722 5721 5720 5718 5717 5716 5716 5714 5713 5712 5711 5710 5709 5708 5706 5706 5705 5704 5703 5702 5701 5700 5699 5698 5697 5696 5695 5694 5693 5692 5691
5796 5796 5795 5794 5793 5792 5791 5790 5789 5789 5788 5787 5786 5785 5784 5783 5781 5780 5779 5778 5777 5777 5776 5775 5773 5772 5771 5771 5770 5769 5768 5766 5765 5763 5762 5761 5760 5759 5758 5757 5756 5755 5754 5753 5752 5751 5750 5748 5747 5746 5745 5744 5743 5741 5740 5738 5736 5735 5733 5732 5731 5731 5729 5728 5727 5726 5725 5724 5723 5722 5721 5720 5719 5717 5716 5715 5714 5713 5712 5711 5710 5708 5707 5706 5705 5704 5702 5701 5701 5700 5699 5698 5697 5696 5695 5694 5693 5692 5691 5690 5689 5688 5687
5794 5793 5793 5792 5791 5790 5789 5788 5787 5786 5786 5785 5784 5783 5782 5781 5779 5778 5777 5776 5775 5774 5773 5772 5771 5769 5769 5768 5767 5766 5765 5763 5762 5760 5759 5757 5756 5756 5755 5754 5753 5751 5750 5749 5748 5747 5746 5745 5744 5743 5742 5741 5740 5738 5736 5735 5733 5731 5729 5728 5727 5726 5725 5724 5723 5722 5721 5720 5719 5718 5717 5716 5715 5714 5712 5711 5710 5709 5708 5707 5706 5705 5704 5702 5701 5700 5699 5697 5696 5696 5695 5694 5693 5692 5691 5691 5690 5689 5687 5686 5686 5685 5683
5792 5791 5790 5789 5788 5787 5786 5786 5785 5784 5783 5782 5781 5781 5779 5778 5777 5776 5775 5773 5772 5772 5771 5770 5768 5767 5766 5765 5764 5763 5762 5760 5759 5757 5756 5755 5754 5753 5752 5751 5749 5748 5747 5746 5745 5744 5742 5741 5740 5739 5738 5737 5736 5735 5733 5731 5729 5727 5726 5725 5724 5723 5721 5720 5719 5717 5716 5715 5715 5714 5713 5712 5711 5710 5709 5707 5706 5705 5704 5703 5702 5701 5700 5699 5698 5696 5695 5694 5693 5692 5691 5690 5689 5688 5687 5686 5685 5684 5683 5682 5681 5681 5680
5790 5789 5788 5787 5786 5785 5784 5783 5782 5781 5781 5780 5779 5778 5777 5776 5775 5774 5773 5771 5770 5769 5768 5767 5766 5764 5763 5762 5761 5760 5759 5757 5756 5754 5753 5752 5751 5750 5749 5748 5746 5745 5744 5743 5741 5740 5739 5738 5737 5736 5735 5733 5732 5731 5729 5727 5725 5723 5722 5721 5720 5719 5718 5716 5715 5713 5712 5711 5710 5709 5709 5708 5707 5706 5705 5704 5702 5701 5701 5700 5698 5697 5696 5695 5694 5693 5692 5691 5689 5688 5687 5686 5685 5684 5683 5682 5681 5680 5679 5678 5677 5676 5676
5787 5786 5786 5785 5784 5782 5781 5780 5780 5779 5778 5777 5777 5776 5775 5774 5773 5771 5771 5770 5768 5767 5766 5765 5764 5762 5761 5760 5758 5757 5755 5754 5752 5751 5750 5749 5748 5747 5746 5745 5743 5741 5740 5739 5738 5737 5736 5735 5733 5732 5731 5730 5728 5727 5725 5723 5721 5720 5718 5717 5716 5715 5714 5712 5711 5709 5708 5707 5706 5705 5704 5703 5702 5701 5700 5699 5698 5698 5696 5696 5695 5693 5692 5691 5690 5689 5688 5687 5686 5685 5684 5683 5681 5680 5679 5678 5677 5676 5675 5674 5673 5672 5671
5785 5784 5783 5782 5781 5780 5779 5778 5777 5776 5776 5775 5774 5774 5772 5771 5770 5769 5768 5767 5766 5765 5764 5762 5761 5760 5759 5757 5756 5754 5752 5751 5749 5747 5746 5746 5745 5744 5743 5741 5739 5738 5737 5736 5735 5734 5732 5731 5730 5729 5727 5726 5724 5722 5721 5719 5717 5716 5715 5714 5713 5712 5711 5709 5707 5706 5704 5703 5702 5701 5700 5699 5698 5697 5696 5695 5694 5693 5693 5691 5691 5690 5688 5687 5686 5685 5684 5683 5682 5681 5680 5679 5678 5676 5675 5674 5673 5672 5671 5670 5669 5668 5667
5782 5781 5781 5780 5779 5778 5776 5776 5774 5773 5773 5772 5771 5771 5770 5769 5767 5766 5765 5764 5763 5762 5761 5760 5758 5757 5756 5755 5754 5752 5750 5747 5746 5744 5743 5742 5741 5741 5739 5737 5736 5735 5734 5732 5731 5730 5728 5727 5726 5725 5724 5722 5720 5718 5716 5715 5714 5713 5712 5711 5710 5708 5707 5706 5704 5702 5701 5700 5699 5698 5697 5696 5695 5693 5692 5691 5690 5690 5689 5688 5687 5686 5685 5683 5682 5681 5680 5679 5678 5677 5676 5675 5674 5672 5671 5670 5669 5668 5667 5666 5665 5664 5663
5780 5779 5778 5777 5776 5775 5774 5773 5772 5771 5770 5769 5769 5768 5767 5766 5764 5763 5762 5761 5760 5758 5757 5756 5755 5754 5752 5751 5751 5749 5747 5744 5742 5741 5740 5739 5738 5736 5735 5734 5732 5731 5731 5729 5727 5726 5724 5723 5722 5721 5719 5717 5716 5714 5712 5711 5710 5709 5708 5707 5706 5705 5704 5702 5701 5699 5698 5696 5696 5695 5694 5692 5691 5690 5689 5688 5687 5686 5685 5684 5683 5682 5681 5680 5679 5678 5676 5675 5674 5673 5671 5670 5669 5668 5667 5666 5666 5665 5663 5662 5661 5660 5659
5777 5776 5775 5774 5774 5773 5771 5771 5769 5768 5767 5767 5766 5765 5764 5762 5761 5760 5759 5757 5756 5755 5754 5752 5751 5751 5749 5748 5747 5746 5744 5741 5739 5738 5736 5735 5734 5733 5731 5729 5729 5728 5727 5726 5724 5722 5721 5720 5719 5717 5715 5713 5711 5710 5708 5707 5706 5706 5705 5703 5702 5701 5700 5698 5697 5695 5694 5693 5692 5691 5690 5689 5688 5686 5685 5684 5683 5682 5681 5680 5679 5679 5678 5676 5676 5674 5673 5672 5671 5669 5667 5666 5665 5664 5663 5662 5661 5660 5659 5658 5657 5656 5655
5774 5773 5772 5771 5771 5770 5769 5768 5766 5766 5765 5764 5763 5762 5761 5760 5758 5757 5756 5754 5753 5751 5750 5749 5747 5746 5746 5745 5743 5742 5741 5737 5735 5734 5732 5731 5730 5729 5726 5725 5724 5724 5724 5722 5720 5719 5719 5716 5715 5713 5711 5709 5706 5705 5705 5703 5702 5701 5701 5699 5698 5697 5696 5695 5693 5692 5691 5690 5689 5688 5687 5686 5684 5683 5682 5681 5680 5679 5678 5677 5676 5675 5674 5673 5672 5671 5670 5669 5667 5666 5664 5662 5661 5660 5658 5658 5657 5656 5655 5654 5653 5652 5651
5771 5771 5769 5768 5767 5766 5766 5765 5763 5762 5761 5760 5760 5759 5758 5756 5755 5754 5752 5751 5749 5748 5746 5745 5744 5742 5741 5741 5740 5738 5736 5734 5732 5730 5728 5727 5725 5723 5722 5722 5720 5719 5719 5717 5716 5716 5717 5714 5710 5708 5708 5706 5704 5702 5701 5700 5698 5697 5696 5695 5694 5693 5692 5691 5689 5688 5687 5686 5686 5684 5683 5682 5681 5680 5678 5677 5676 5675 5674 5673 5672 5671 5670 5669 5668 5667 5666 5665 5664 5662 5660 5658 5657 5655 5654 5653 5652 5651 5651 5650 5649 5648 5647
5768 5767 5766 5765 5764 5763 5762 5761 5760 5759 5757 5756 5756 5755 5754 5753 5752 5750 5749 5747 5746 5744 5742 5741 5740 5738 5736 5736 5735 5734 5732 5731 5728 5726 5724 5723 5721 5719 5717 5717 5716 5715 5713 5712 5711 5711 5713 5711 5707 5704 5704 5703 5701 5699 5698 5696 5695 5693 5692 5691 5690 5689 5688 5687 5685 5684 5683 5682 5681 5681 5679 5678 5677 5676 5675 5674 5673 5671 5671 5669 5668 5667 5666 5665 5664 5663 5662 5661 5659 5658 5656 5655 5653 5651 5650 5649 5648 5647 5646 5645 5645 5644 5643
5765 5764 5763 5761 5761 5760 5758 5757 5756 5755 5754 5753 5751 5751 5750 5749 5748 5746 5745 5743 5741 5740 5739 5737 5736 5734 5733 5731 5730 5729 5728 5726 5725 5723 5720 5718 5717 5715 5713 5711 5710 5710 5708 5707 5706 5706 5706 5706 5703 5701 5701 5700 5697 5695 5694 5693 5691 5689 5688 5687 5686 5685 5684 5682 5681 5680 5679 5678 5677 5676 5675 5674 5673 5672 5671 5670 5669 5668 5667 5666 5664 5663 5662 5661 5660 5659 5658 5656 5655 5654 5652 5651 5649 5647 5646 5645 5643 5642 5641 5640 5640 5639 5639
5761 5760 5759 5758 5757 5756 5755 5754 5752 5751 5750 5749 5747 5746 5746 5745 5743 5742 5741 5739 5737 5736 5734 5733 5731 5730 5729 5727 5726 5725 5724 5722 5721 5719 5716 5714 5712 5711 5709 5707 5705 5704 5702 5701 5701 5701 5701 5699 5697 5696 5697 5697 5695 5691 5690 5689 5688 5686 5685 5684 5682 5681 5679 5678 5677 5676 5675 5674 5673 5672 5671 5670 5669 5668 5667 5666 5665 5664 5663 5662 5661 5659 5658 5657 5656 5655 5654 5652 5651 5649 5648 5647 5645 5644 5642 5641 5639 5638 5636 5636 5635 5635 5634
5758 5757 5756 5754 5753 5752 5751 5750 5749 5747 5746 5745 5743 5742 5741 5740 5739 5738 5736 5735 5733 5731 5730 5728 5727 5726 5725 5723 5721 5720 5719 5718 5717 5714 5712 5710 5708 5706 5705 5703 5701 5699 5697 5695 5695 5695 5693 5693 5691 5690 5691 5692 5691 5688 5686 5685 5684 5683 5682 5680 5678 5677 5675 5674 5672 5671 5671 5670 5669 5668 5667 5666 5665 5664 5662 5662 5661 5660 5659 5658 5657 5656 5654 5653 5652 5651 5649 5648 5647 5646 5644 5643 5641 5640 5639 5637 5635 5634 5632 5631 5631 5630 5630
5755 5754 5752 5751 5750 5748 5747 5746 5745 5743 5742 5741 5739 5738 5737 5736 5735 5733 5732 5730 5729 5727 5725 5724 5722 5721 5720 5718 5716 5715 5714 5713 5712 5710 5707 5705 5703 5702 5701 5698 5696 5695 5692 5691 5689 5688 5686 5685 5685 5684 5683 5684 5685 5685 5684 5681 5679 5678 5677 5676 5674 5672 5671 5669 5668 5667 5666 5666 5665 5663 5662 5661 5660 5659 5658 5657 5656 5656 5655 5654 5653 5652 5650 5649 5648 5646 5645 5644 5643 5641 5640 5639 5638 5636 5635 5634 5632 5630 5629 5627 5626 5626 5625
5752 5751 5749 5748 5746 5745 5743 5742 5741 5739 5738 5736 5735 5734 5732 5731 5730 5729 5727 5726 5724 5722 5721 5719 5718 5716 5715 5713 5711 5710 5708 5708 5707 5705 5703 5700 5699 5698 5696 5693 5691 5690 5689 5686 5685 5683 5681 5679 5678 5677 5676 5675 5676 5678 5679 5676 5674 5673 5671 5671 5669 5667 5666 5665 5664 5663 5661 5661 5659 5658 5657 5656 5655 5654 5653 5652 5652 5651 5651 5650 5649 5648 5646 5645 5643 5642 5641 5639 5638 5637 5636 5635 5634 5633 5631 5630 5628 5626 5625 5624 5623 5622 5621
5749 5747 5746 5745 5743 5741 5740 5738 5737 5736 5734 5732 5731 5730 5728 5727 5726 5724 5723 5721 5720 5718 5716 5714 5713 5711 5710 5708 5706 5705 5703 5703 5702 5700 5698 5696 5693 5692 5692 5689 5686 5685 5684 5682 5680 5678 5676 5674 5673 5671 5669 5667 5667 5669 5671 5672 5671 5668 5666 5665 5664 5662 5660 5659 5659 5658 5656 5655 5654 5653 5651 5651 5650 5649 5648 5647 5646 5646 5646 5645 5644 5643 5642 5641 5639 5637 5636 5635 5634 5632 5631 5631 5630 5629 5627 5626 5625 5623 5622 5621 5619 5618 5617
5746 5745 5743 5741 5740 5738 5736 5735 5733 5732 5730 5728 5727 5725 5724 5723 5721 5720 5718 5717 5715 5714 5712 5710 5708 5706 5705 5703 5701 5700 5698 5697 5696 5695 5693 5691 5688 5687 5686 5684 5682 5680 5679 5677 5676 5674 5672 5670 5668 5666 5664 5662 5661 5661 5662 5665 5666 5665 5661 5661 5659 5657 5655 5654 5654 5653 5651 5650 5649 5647 5646 5645 5644 5643 5642 5641 5641 5641 5640 5640 5639 5638 5637 5636 5634 5633 5631 5630 5629 5628 5627 5626 5625 5624 5623 5621 5620 5619 5618 5617 5616 5615 5614